Stations météo

Publicité
Aurillac, France (7549): Température de l'air & dewpoint: 14.08.2019 14:00:00 - 20.08.2019 14:00:00 (CEST)Aurillac, France (7549): Température de l'air 5cm: 14.08.2019 14:00:00 - 20.08.2019 14:00:00 (CEST)Aurillac, France (7549): Température de l'air -20cm & Température de l'air -100cm: 14.08.2019 14:00:00 - 20.08.2019 14:00:00 (CEST)Aurillac, France (7549): Vitesse du vent & gusts: 14.08.2019 14:00:00 - 20.08.2019 14:00:00 (CEST)Aurillac, France (7549): Direction du vent: 14.08.2019 14:00:00 - 20.08.2019 14:00:00 (CEST)Aurillac, France (7549): reduced air pressure: 14.08.2019 14:00:00 - 20.08.2019 14:00:00 (CEST)Aurillac, France (7549): visibility: 14.08.2019 14:00:00 - 20.08.2019 14:00:00 (CEST)Aurillac, France (7549): Ensoleillement: 14.08.2019 14:00:00 - 20.08.2019 14:00:00 (CEST)Aurillac, France (7549): Quantités de précipitations: 14.08.2019 14:00:00 - 20.08.2019 14:00:00 (CEST)
Date & Time tt [°C] td [°C] tt 5cm [°C] tt -20cm [°C] tt -100cm [°C] ff [km/h] ff [knt] fx [km/h] fx [knt] dd ppp [hPa] vv [km] sd [min] rr [mm]
20.08.2019 14:00:00 14,0 12,4 13,9 19,6 18,7 8 4 14 7 NW 1024,3 51 0 0,2
20.08.2019 13:00:00 13,7 12,6 13,3 19,7 18,7 7 4 11 6 W 1024,3 31 0 0,2
20.08.2019 12:00:00 12,9 12,1 12,5 19,8 18,7 7 4 11 6 E 1023,6 12 0 0,4
20.08.2019 11:00:00 12,5 11,9 12,5 20,0 18,8 5 3 22 12 WNW 1023,8 12 0 1,0
20.08.2019 10:00:00 13,4 12,8 13,1 20,1 18,7 2 1 6 3 WNW 1022,1 8 0 1,4
20.08.2019 09:00:00 13,1 12,5 12,9 20,2 18,7 0 0 6 4 N 1022,0 10 0 1,0
20.08.2019 08:00:00 13,0 12,4 12,9 20,3 18,7 4 2 14 8 N 1021,5 12 0 0,2
20.08.2019 07:00:00 13,3 12,7 12,9 20,5 18,7 4 2 7 4 W 1020,7 26 0 0,0
20.08.2019 06:00:00 13,3 12,7 13,1 20,6 18,8 5 3 7 4 WNW 1020,6 20 0 0,2
20.08.2019 05:00:00 13,0 12,4 12,5 20,7 18,7 3 2 7 4 WNW 1020,6 34 0 0,0
20.08.2019 04:00:00 12,7 12,1 12,6 20,9 18,7 6 3 8 5 ESE 1019,9 20 0 0,0
20.08.2019 03:00:00 12,7 11,9 12,2 21,0 18,7 4 2 9 5 E 1020,5 31 0 0,4
20.08.2019 02:00:00 12,8 11,9 12,3 21,1 18,7 2 1 7 4 SSE 1021,1 2,0 0 1,8
20.08.2019 01:00:00 12,7 11,8 12,2 21,3 18,8 5 3 8 4 E 1021,1 39 0 0,0
20.08.2019 00:00:00 13,0 11,9 12,6 21,3 18,7 7 4 10 5 WSW 1021,7 41 0 0,0
19.08.2019 23:00:00 13,2 11,6 12,3 21,3 18,7 4 2 21 11 SW 1021,3 58 0 0,0
19.08.2019 22:00:00 13,9 10,7 12,4 21,3 18,7 7 4 16 9 NNW 1021,6 57 0 2,2
19.08.2019 21:00:00 16,0 9,4 14,4 21,2 18,7 5 3 13 7 WNW 1020,2 49 0 0,0
19.08.2019 20:00:00 17,6 9,0 16,7 21,2 18,7 8 4 18 10 NW 1019,5 60 27 0,0
19.08.2019 19:00:00 18,8 9,3 18,7 21,0 18,7 9 5 16 9 W 1019,0 60 21 0,0
19.08.2019 18:00:00 19,3 8,9 20,4 20,9 18,7 10 5 18 10 WNW 1019,0 55 18 0,0
19.08.2019 17:00:00 19,7 8,7 21,4 20,9 18,7 6 4 19 10 WNW 1018,9 59 43 0,0
19.08.2019 16:00:00 18,9 9,7 20,1 20,9 18,7 9 5 24 13 NNW 1019,2 52 37 0,0
19.08.2019 15:00:00 17,9 10,3 19,6 21,0 18,7 9 5 21 11 NNW 1019,8 39 35 0,0
19.08.2019 14:00:00 17,0 11,3 17,7 21,0 18,7 12 6 22 12 NW 1019,8 20 24 0,0
19.08.2019 13:00:00 15,1 11,3 14,8 21,2 18,7 10 6 20 11 WNW 1020,3 49 0 0,0
19.08.2019 12:00:00 14,0 11,7 14,2 21,3 18,7 10 5 17 9 WNW 1020,6 54 0 0,0
19.08.2019 11:00:00 13,5 12,1 14,0 21,5 18,7 9 5 19 10 WNW 1020,4 51 0 0,0
19.08.2019 10:00:00 13,6 12,5 13,8 21,6 18,7 8 4 21 12 WNW 1019,6 52 0 0,0
19.08.2019 09:00:00 13,4 12,6 13,4 21,8 18,7 8 5 22 12 WNW 1019,7 30 0 0,0
19.08.2019 08:00:00 13,4 12,6 13,4 21,9 18,7 10 5 18 10 WNW 1019,5 34 0 0,0
19.08.2019 07:00:00 13,7 13,1 13,7 22,1 18,7 8 4 17 9 WNW 1018,6 36 0 0,0
19.08.2019 06:00:00 13,9 13,3 13,9 22,2 18,7 11 6 22 12 NW 1018,0 37 0 0,0
19.08.2019 05:00:00 14,1 13,5 14,1 22,4 18,8 9 5 17 9 W 1018,0 34 0 0,3
19.08.2019 04:00:00 14,7 13,9 14,5 22,5 18,7 6 3 18 10 NW 1018,0 18 0 0,6
19.08.2019 03:00:00 15,3 14,3 14,9 22,5 18,7 6 3 22 12 WNW 1017,6 42 0 3,4
19.08.2019 02:00:00 16,3 14,8 15,4 22,6 18,7 11 6 25 13 N 1016,6 60 0 1,0
19.08.2019 01:00:00 17,4 16,3 17,0 22,6 18,8 11 6 29 15 WNW 1016,3 19 0 0,2
19.08.2019 00:00:00 18,9 17,6 18,3 22,6 18,8 9 5 24 13 W 1015,7 10 0 4,3
18.08.2019 23:00:00 20,3 17,1 18,8 22,5 18,7 3 2 10 6 WNW 1014,2 20 0 0,0
18.08.2019 22:00:00 21,3 17,1 18,9 22,5 18,8 5 3 14 8 WNW 1013,5 60 0 0,2
18.08.2019 21:00:00 22,5 16,5 19,6 22,3 18,7 6 3 26 14 NW 1012,4 20 0 0,0
18.08.2019 20:00:00 23,3 17,3 23,0 22,1 18,7 10 5 25 13 NW 1011,1 52 22 0,0
18.08.2019 19:00:00 24,1 17,3 24,1 21,9 18,8 13 7 34 19 NW 1011,1 49 47 0,0
18.08.2019 18:00:00 26,2 17,8 27,6 21,7 18,8 16 9 31 17 WNW 1010,0 49 47 0,0
18.08.2019 17:00:00 27,3 17,8 27,4 21,4 18,8 14 8 26 14 WSW 1009,6 60 16 0,0
18.08.2019 16:00:00 28,4 17,0 28,7 21,2 18,8 13 7 35 19 SW 1009,6 35 42 0,0
18.08.2019 15:00:00 27,8 16,1 28,8 21,0 18,8 12 6 28 15 SSW 1009,9 19 39 0,0
18.08.2019 14:00:00 27,6 16,9 29,0 20,8 18,8 12 6 24 13 SSW 1010,1 49 43 0,0
18.08.2019 13:00:00 26,7 16,6 28,3 20,8 18,8 9 5 25 14 S 1010,3 19 49 0,0
18.08.2019 12:00:00 25,8 16,9 27,5 20,8 18,8 9 5 23 13 SSW 1010,8 60 60 0,0
18.08.2019 11:00:00 24,8 16,0 25,0 20,8 18,8 11 6 24 13 S 1010,6 32 60 0,0
18.08.2019 10:00:00 22,9 15,2 22,9 21,0 18,8 7 4 35 19 SSE 1010,2 39 60 0,0
18.08.2019 09:00:00 21,3 15,6 20,3 21,1 18,8 17 9 28 15 ESE 1009,5 45 60 0,0
18.08.2019 08:00:00 19,5 12,3 17,4 21,2 18,8 16 9 26 14 E 1009,8 50 31 0,0
18.08.2019 07:00:00 18,7 12,0 15,1 21,4 18,8 18 10 29 16 ENE 1010,0 60 0 0,0
18.08.2019 06:00:00 16,6 12,7 15,1 21,5 18,8 11 6 23 13 ENE 1010,7 60 0 0,0
18.08.2019 05:00:00 16,8 12,7 15,6 21,6 18,8 15 8 18 10 E 1011,2 60 0 0,0
18.08.2019 04:00:00 17,8 12,9 15,2 21,8 18,8 13 7 20 11 E 1011,8 60 0 0,0
18.08.2019 03:00:00 16,6 12,7 14,7 21,9 18,8 16 9 24 13 E 1012,7 60 0 0,0
18.08.2019 02:00:00 15,8 12,9 14,1 22,0 18,8 15 8 20 11 E 1013,6 60 0 0,0
18.08.2019 01:00:00 15,9 13,2 13,5 22,0 18,8 10 5 16 9 E 1014,3 59 0 0,0
18.08.2019 00:00:00 16,0 13,1 13,6 22,0 18,8 7 4 10 6 E 1014,6 57 0 0,0
17.08.2019 23:00:00 18,4 13,7 14,4 21,9 18,8 5 3 7 4 E 1014,1 57 0 0,0
17.08.2019 22:00:00 22,5 12,1 16,5 21,8 18,8 4 2 9 5 NNW 1013,0 60 0 0,0
17.08.2019 21:00:00 23,6 13,2 19,4 21,6 18,8 4 2 9 5 S 1012,4 59 31 0,0
17.08.2019 20:00:00 26,3 12,7 25,2 21,4 18,9 6 3 16 9 S 1011,7 51 60 0,0
17.08.2019 19:00:00 27,6 12,4 28,9 21,1 18,8 8 4 20 11 SW 1011,7 57 60 0,0
17.08.2019 18:00:00 27,8 11,8 29,0 20,8 18,8 8 4 18 10 SW 1012,1 59 60 0,0
17.08.2019 17:00:00 28,0 11,5 29,5 20,5 18,8 9 5 20 11 SW 1012,4 60 60 0,0
17.08.2019 16:00:00 27,5 11,1 31,4 20,2 18,9 11 6 23 12 SW 1012,7 60 60 0,0
17.08.2019 15:00:00 27,1 9,9 29,3 20,0 18,8 11 6 21 11 SW 1013,3 60 60 0,0
17.08.2019 14:00:00 26,2 8,7 29,1 19,9 18,8 8 5 20 11 W 1013,9 60 60 0,0
17.08.2019 13:00:00 25,0 10,1 29,1 19,8 18,9 9 5 21 11 SSW 1014,6 58 60 0,0
17.08.2019 12:00:00 23,7 9,3 26,1 19,9 18,8 9 5 21 11 SSW 1015,2 20 60 0,0
17.08.2019 11:00:00 22,1 12,9 21,7 20,0 18,9 9 5 15 8 SE 1015,5 60 57 0,0
17.08.2019 10:00:00 19,7 12,9 17,0 20,2 18,9 9 5 14 7 E 1016,0 51 43 0,0
17.08.2019 09:00:00 16,3 12,1 14,0 20,4 18,9 10 5 17 9 E 1016,9 54 54 0,0
17.08.2019 08:00:00 13,3 10,7 10,9 20,5 18,9 13 7 19 10 E 1017,5 38 37 0,0
17.08.2019 07:00:00 11,7 9,9 10,3 20,7 18,9 13 7 18 10 E 1017,7 60 0 0,0
17.08.2019 06:00:00 11,5 9,7 9,5 20,9 18,9 13 7 16 9 E 1017,8 60 0 0,0
17.08.2019 05:00:00 10,8 9,2 8,6 21,1 18,9 10 5 14 8 ESE 1018,4 60 0 0,0
17.08.2019 04:00:00 11,3 9,4 8,8 21,2 18,9 6 3 11 6 ESE 1018,4 60 0 0,0
17.08.2019 03:00:00 12,2 9,8 9,7 21,4 18,9 5 3 13 7 ESE 1018,1 60 0 0,0
17.08.2019 02:00:00 11,8 9,5 10,0 21,5 18,9 8 4 14 7 ESE 1018,3 60 0 0,0
17.08.2019 01:00:00 12,8 9,8 10,5 21,5 18,9 5 3 14 8 ESE 1018,1 60 0 0,0
17.08.2019 00:00:00 15,4 11,2 11,6 21,5 18,9 8 4 15 8 E 1017,5 60 0 0,0
16.08.2019 23:00:00 15,7 11,5 13,3 21,4 18,9 11 6 16 9 E 1016,9 60 0 0,0
16.08.2019 22:00:00 16,7 11,2 13,2 21,3 18,9 5 3 8 4 E 1016,9 60 0 0,0
16.08.2019 21:00:00 20,7 10,8 18,1 21,1 18,9 4 2 14 7 SW 1015,3 19 18 0,0
16.08.2019 20:00:00 23,5 11,2 22,9 20,8 18,9 6 4 14 8 WSW 1014,4 60 55 0,0
16.08.2019 19:00:00 25,4 10,8 26,8 20,5 18,9 6 3 12 7 W 1014,0 54 60 0,0
16.08.2019 18:00:00 25,7 10,7 26,1 20,1 19,0 5 3 13 7 WSW 1014,1 59 57 0,0
16.08.2019 17:00:00 24,9 10,7 26,9 19,8 18,9 3 2 14 7 NNE 1014,9 51 53 0,0
16.08.2019 16:00:00 23,6 11,6 27,7 19,5 18,9 7 4 20 11 N 1015,7 53 58 0,0
16.08.2019 15:00:00 22,7 11,4 27,9 19,2 18,9 8 4 16 9 NW 1016,4 20 60 0,0
16.08.2019 14:00:00 22,0 12,5 27,1 19,1 19,0 7 4 16 9 N 1016,8 20 60 0,0
16.08.2019 13:00:00 21,2 10,7 23,9 19,0 19,0 5 3 12 7 NW 1017,5 20 60 0,0
16.08.2019 12:00:00 19,6 10,8 23,4 19,1 18,9 5 3 11 6 W 1018,3 57 53 0,0
16.08.2019 11:00:00 19,1 11,1 22,0 19,2 19,0 3 1 9 5 WSW 1018,8 42 60 0,0
16.08.2019 10:00:00 16,3 12,5 16,0 19,4 19,0 5 3 10 5 ENE 1019,6 60 60 0,0
16.08.2019 09:00:00 13,3 11,5 12,7 19,6 19,0 3 1 5 3 E 1021,0 55 60 0,0
16.08.2019 08:00:00 9,2 8,9 5,5 19,8 19,0 3 2 8 4 E 1021,6 17 45 0,0
16.08.2019 07:00:00 8,1 7,8 4,7 20,0 19,0 4 2 6 3 ESE 1021,8 1,0 0 0,0
16.08.2019 06:00:00 8,0 7,6 5,3 20,2 19,0 4 2 5 3 ESE 1022,2 0,4 0 0,2
16.08.2019 05:00:00 8,1 7,7 6,0 20,4 19,0 3 2 5 3 ESE 1022,4 9 0 0,0
16.08.2019 04:00:00 9,1 8,5 6,4 20,6 19,0 4 2 9 5 SE 1022,6 1,1 0 0,0
16.08.2019 03:00:00 9,7 8,9 6,9 20,7 19,0 4 2 7 4 ESE 1023,0 3,2 0 0,0
16.08.2019 02:00:00 10,4 9,5 7,5 20,8 19,0 0 0 4 2 N 1023,1 1,0 0 0,0
16.08.2019 01:00:00 11,8 10,7 8,7 20,9 19,0 3 1 6 4 W 1022,9 59 0 0,0
16.08.2019 00:00:00 12,9 11,1 9,8 21,0 19,0 5 3 6 4 WSW 1022,8 60 0 0,0
15.08.2019 23:00:00 14,1 11,1 11,0 21,0 19,0 3 2 5 3 NW 1022,7 59 0 0,0
15.08.2019 22:00:00 15,4 11,4 12,8 21,0 19,0 4 2 11 6 WNW 1022,1 24 0 0,0
15.08.2019 21:00:00 16,8 11,3 14,8 20,9 19,0 5 3 19 10 W 1021,3 60 34 0,0
15.08.2019 20:00:00 18,9 11,7 18,9 20,8 19,0 9 5 22 12 NW 1020,2 49 57 0,0
15.08.2019 19:00:00 19,7 11,5 19,4 20,7 19,0 15 8 29 16 NW 1019,8 60 42 0,0
15.08.2019 18:00:00 19,3 12,1 19,7 20,5 19,1 13 7 32 18 WNW 1019,8 52 47 0,0
15.08.2019 17:00:00 20,0 12,7 21,9 20,5 19,1 16 9 32 18 W 1019,3 20 60 0,0
15.08.2019 16:00:00 19,6 13,5 20,0 20,4 19,0 15 8 28 15 WNW 1019,6 60 25 0,0
15.08.2019 15:00:00 18,7 13,5 17,8 20,5 19,1 7 4 22 12 WNW 1020,0 59 14 0,0
15.08.2019 14:00:00 17,0 12,3 17,5 20,5 19,1 15 8 27 15 WNW 1020,5 53 6 0,0
15.08.2019 13:00:00 16,9 14,4 15,5 20,5 19,1 6 4 14 8 W 1020,3 45 2 0,0
15.08.2019 12:00:00 16,0 13,3 16,1 20,5 19,1 7 4 21 11 NNW 1020,5 17 2 0,0
15.08.2019 11:00:00 16,6 13,9 15,4 20,6 19,1 9 5 20 11 NW 1020,0 49 11 0,0
15.08.2019 10:00:00 15,1 14,3 14,9 20,7 19,1 8 4 14 8 NW 1020,1 32 0 0,0
15.08.2019 09:00:00 14,6 13,8 14,1 20,8 19,1 5 3 10 5 W 1019,9 12 0 0,8
15.08.2019 08:00:00 14,2 13,2 13,8 20,9 19,1 2 1 4 2 SW 1019,4 3,0 0 0,6
15.08.2019 07:00:00 14,4 12,6 13,9 21,0 19,1 0 0 9 5 N 1019,3 3,4 0 0,0
15.08.2019 06:00:00 15,6 11,4 15,2 21,2 19,1 4 2 15 8 WSW 1018,5 18 0 0,0
15.08.2019 05:00:00 16,5 11,0 15,9 21,3 19,1 4 2 12 7 WNW 1018,4 60 0 0,0
15.08.2019 04:00:00 16,0 11,6 15,0 21,4 19,1 3 2 9 5 WNW 1018,9 60 0 0,0
15.08.2019 03:00:00 15,3 11,3 14,8 21,4 19,1 4 2 6 3 E 1019,1 60 0 0,0
15.08.2019 02:00:00 15,3 11,5 14,7 21,5 19,1 3 1 5 3 E 1019,5 60 0 0,0
15.08.2019 01:00:00 15,6 11,0 14,3 21,5 19,1 4 2 6 3 ESE 1019,4 60 0 0,0
15.08.2019 00:00:00 17,4 9,8 15,5 21,5 19,1 0 0 3 2 N 1019,2 60 0 0,0
14.08.2019 23:00:00 17,1 9,5 14,4 21,5 19,2 3 1 17 9 W 1019,3 60 0 0,0
14.08.2019 22:00:00 18,0 9,3 16,2 21,4 19,1 5 3 8 5 W 1018,9 60 0 0,0
14.08.2019 21:00:00 18,5 8,7 16,4 21,2 19,2 4 2 12 7 W 1018,1 60 10 0,0
14.08.2019 20:00:00 20,9 8,2 20,1 20,9 19,2 8 5 23 13 W 1017,3 59 55 0,0
14.08.2019 19:00:00 21,9 7,7 23,0 20,6 19,2 10 5 19 10 W 1016,8 59 60 0,0
14.08.2019 18:00:00 22,4 7,4 23,9 20,2 19,2 11 6 22 12 WNW 1017,0 42 60 0,0
14.08.2019 17:00:00 21,9 9,1 24,2 19,9 19,2 10 5 20 11 NW 1017,1 28 60 0,0
14.08.2019 16:00:00 21,6 8,5 25,3 19,6 19,2 10 5 22 12 NNW 1017,9 20 60 0,0
14.08.2019 15:00:00 21,1 8,0 26,7 19,3 19,2 7 4 20 11 NW 1018,0 54 60 0,0
14.08.2019 14:00:00 20,3 8,0 24,8 19,2 19,2 10 5 20 11 NNW 1018,5 60 60 0,0

tt = Température de l'air
td = dewpoint
tt 5cm = Température de l'air 5cm
tt -20cm = Température de l'air -20cm
tt -100cm = Température de l'air -100cm
ff = Vitesse du vent
fx = gusts
dd = Direction du vent
ppp = reduced air pressure
vv = visibility
sd = Ensoleillement
rr = Quantités de précipitations

stations d'obs. à proximité